Location: Bonac
(42.8765°N, 0.9753°E)
Time: 18:55:01
(UTC+00:00)

Cosmos 1953 - Pass Details

Date: 12 April 2026
Orbit: 471 x 483 km, 82.5° (Epoch: 12 May)

Event Time Altitude Azimuth Distance (km) Brightness Sun altitude
Rises 19:07:18 0° 185° (S) 2,502 5.5 -6.5°
Reaches altitude 10° 19:09:22 10° 184° (S) 1,631 4.6 -6.9°
Maximum altitude 19:12:55 83° 98° (E) 483 2.0 -7.5°
Drops below altitude 10° 19:16:32 10° 10° (N) 1,652 4.9 -8.1°
Sets 19:18:38 0° 9° (N) 2,537 5.9 -8.5°
